Flag for U.S.A. Weather past 2 weeks in Lexington, North Carolina, U.S.A.

Now
73 °F

Clear.


Feels Like: 69 °F
Forecast: 69 / 81 °F
Wind: No wind

Location: Davidson County Airport

Current Time: Jul 23, 2014 at 10:36:15 PM

Latest Report: Jul 23, 2014 at 10:15 PM


Visibility: 10 mi

Pressure: 29.95 "Hg

Humidity: 98%

Dew point: 73 °F

Location of LexingtonLocation

Historic Weather in Lexington — Graph

°F

Lexington temperature yesterday

Maximum temperature yesterday: 77 °F (at 7:55 PM)
Minimum temperature yesterday: 69 °F (at 4:55 AM)
Average temperature yesterday: 71 °F

Past Weeks' High & Low Weather Summary

 TemperatureHumidityPressure
High92 °F (Jul 14, 3:15 PM)100% (Jul 9, 6:15 PM)30.25 "Hg (Jul 9, 6:15 PM)
Low55 °F (Jul 17, 6:15 AM)36% (Jul 12, 4:15 PM)29.78 "Hg (Jul 15, 1:55 PM)
Average74 °F80%30.07 "Hg
* Reported Jul 8 8:15 PM — Jul 23 8:55 PM, Lexington, Weather by CustomWeather, © 2014

Note: Actual official high and low records may vary slightly from our data, if they occured in-between our weather recording intervals... More about our weather records

Advertising

Lexington weather history for previous 24 hours

 ConditionsComfort  
Time TempWeatherWind HumidityBarometerVisibility
8:55 PM
Jul 23
78 °FOvercast.No wind83%29.95 "Hg10 mi
8:35 PM80 °FPartly sunny.No wind76%29.95 "Hg10 mi
8:15 PM81 °FScattered clouds.No wind74%29.95 "Hg10 mi
7:55 PM82 °FPartly sunny.No wind70%29.96 "Hg10 mi
7:35 PM83 °FScattered clouds.3 mph71%29.95 "Hg10 mi
7:15 PM83 °FScattered clouds.No wind70%29.95 "Hg10 mi
6:55 PM83 °FPartly sunny.No wind71%29.95 "Hg10 mi
6:35 PM85 °FScattered clouds.No wind67%29.95 "Hg10 mi
6:15 PM84 °FSunny.3 mph69%29.95 "Hg10 mi
5:50 PM85 °FSunny.3 mph65%29.95 "Hg10 mi
5:35 PM85 °FSunny.5 mph64%29.95 "Hg10 mi
5:15 PM86 °FSunny.3 mph65%29.95 "Hg10 mi
4:55 PM88 °FSunny.6 mph59%29.96 "Hg10 mi
4:35 PM87 °FSunny.6 mph60%29.96 "Hg10 mi
4:10 PM88 °FScattered clouds.6 mph58%29.97 "Hg10 mi
3:55 PM88 °FScattered clouds.3 mph59%29.98 "Hg10 mi
3:15 PM87 °FSunny.No wind56%29.99 "Hg10 mi
2:55 PM86 °FSunny.5 mph59%30.01 "Hg10 mi
2:15 PM86 °FSunny.3 mph62%30.02 "Hg10 mi
1:55 PM85 °FSunny.No wind61%30.03 "Hg10 mi
1:10 PM84 °FScattered clouds.6 mph68%30.05 "Hg10 mi
12:55 PM84 °FPartly sunny.5 mph70%30.05 "Hg10 mi
12:40 PM81 °FOvercast.3 mph75%30.06 "Hg10 mi
12:15 PM82 °FPartly sunny.6 mph74%30.06 "Hg10 mi
11:55 AM80 °FPartly sunny.3 mph77%30.07 "Hg10 mi
11:15 AM79 °FWarm.No wind82%30.09 "Hg10 mi
10:55 AM79 °FWarm.3 mph82%30.09 "Hg10 mi
10:15 AM78 °FWarm.No wind85%30.10 "Hg10 mi
9:55 AM77 °FOvercast.No wind85%30.10 "Hg10 mi
8:50 AM74 °FOvercast.No wind100%30.11 "Hg10 mi
7:15 AMN/APassing clouds.No windN/A30.10 "Hg5 mi
6:55 AMN/APassing clouds.No windN/A30.09 "Hg4 mi
6:15 AMN/AClear.No windN/A30.08 "Hg7 mi
5:15 AMN/AFog.No windN/A30.08 "Hg3 mi
4:55 AMN/AClear.No windN/A30.08 "Hg4 mi
4:15 AMN/AFog.No windN/A30.08 "Hg3 mi
2:00 AMN/AClear.No windN/A30.10 "Hg5 mi
1:15 AMN/AClear.No windN/A30.12 "Hg5 mi
12:55 AMN/AClear.No windN/A30.12 "Hg7 mi
12:20 AMN/APassing clouds.No windN/A30.13 "Hg5 mi
11:55 PM
Jul 22
N/APassing clouds.No windN/A30.13 "Hg7 mi
11:15 PM71 °FClear.No wind100%30.13 "Hg7 mi
10:55 PM71 °FPassing clouds.No wind100%30.13 "Hg10 mi
10:35 PM71 °FPassing clouds.No wind100%30.13 "Hg10 mi
10:15 PM72 °FPassing clouds.No wind100%30.12 "Hg10 mi
Weather by CustomWeather, © 2014

See weather overviewHow to use our weather pages